QPF
0.00 0.00 0.00 0.00 0.00 0.00 0.00 0.00 0.00 0.00 0.00 0.00 0.00 0.00 0.00 0.00 0.00 0.00 0.00 0.00 0.00 0.00 0.00 0.00 0.00 0.00 0.00 0.00 0.00 0.00 0.00 0.00 0.00 0.00 0.00 0.00 0.00 0.00
0.00 0.00 0.00 0.00 0.00 0.00 0.00 0.00 0.00 0.00 0.00 0.00 0.00 0.00 0.00 0.00 0.00 0.00 0.00 0.00 0.00 0.00 0.00 0.00 0.00 0.00 0.00 0.00 0.00 0.00 0.00 0.00 0.00 0.00 0.00 0.00 0.00 0.00
0.00 0.00 0.00 0.00 0.00 0.00 0.00 0.00 0.00 0.00 0.00 0.00 0.00 0.00 0.00 0.00 0.00 0.00 0.00 0.00 0.00 0.00 0.00 0.00 0.00 0.00 0.00 0.00 0.00 0.00 0.00 0.00 0.00 0.00 0.00 0.00 0.00 0.00
0.00 0.00 0.00 0.00 0.00 0.00 0.00 0.00 0.00 0.00 0.00 0.00 0.00 0.00 0.00 0.00 0.00 0.00 0.00 0.00 0.00 0.00 0.00 0.00 0.00 0.00 0.00 0.00 0.00 0.00 0.00 0.00 0.00 0.00 0.00 0.00 0.00 0.00
0.00 0.00 0.00 0.00 0.00 0.00 0.00 0.00 0.00 0.02 0.02 0.00 0.00 0.00 0.00 0.00 0.00 0.00 0.00 0.00 0.00 0.00 0.00 0.00 0.00 0.00 0.00 0.00 0.00 0.00 0.00 0.00 0.00 0.00 0.00 0.00 0.00 0.00
0.00 0.00 0.00 0.00 0.00 0.00 0.00 0.02 0.03 0.04 0.04 0.04 0.03 0.01 0.00 0.00 0.00 0.00 0.00 0.00 0.00 0.00 0.00 0.00 0.00 0.00 0.00 0.00 0.00 0.00 0.00 0.00 0.00 0.00 0.00 0.00 0.00 0.00
0.00 0.00 0.00 0.00 0.00 0.00 0.02 0.05 0.06 0.05 0.03 0.02 0.00 0.00 0.00 0.00 0.00 0.00 0.00 0.00 0.00 0.00 0.00 0.00 0.00 0.00 0.00 0.00 0.00 0.00 0.00 0.00 0.00 0.00 0.00 0.00 0.00 0.00
0.01 0.00 0.00 0.00 0.00 0.02 0.02 0.03 0.03 0.02 0.01 0.00 0.00 0.00 0.00 0.00 0.00 0.00 0.00 0.00 0.00 0.00 0.00 0.00 0.00 0.00 0.00 0.00 0.00 0.00 0.00 0.00 0.00 0.00 0.00 0.00 0.00 0.00
0.01 0.00 0.00 0.00 0.01 0.01 0.00 0.01 0.02 0.03 0.02 0.00 0.00 0.00 0.00 0.00 0.00 0.00 0.00 0.00 0.00 0.00 0.00 0.00 0.00 0.00 0.00 0.00 0.00 0.00 0.00 0.00 0.00 0.00 0.00 0.00 0.00 0.00
0.00 0.00 0.00 0.02 0.02 0.01 0.01 0.01 0.01 0.01 0.01 0.00 0.00 0.00 0.00 0.00 0.00 0.00 0.00 0.00 0.00 0.00 0.00 0.00 0.00 0.00 0.00 0.00 0.00 0.00 0.00 0.00 0.00 0.00 0.00 0.00 0.00 0.00
0.00 0.00 0.00 0.01 0.02 0.02 0.02 0.00 0.00 0.01 0.04 0.02 0.00 0.00 0.00 0.00 0.00 0.00 0.00 0.00 0.00 0.00 0.00 0.00 0.00 0.00 0.00 0.00 0.00 0.00 0.00 0.00 0.00 0.00 0.00 0.00 0.00 0.00
0.00 0.00 0.00 0.00 0.01 0.02 0.01 0.01 0.00 0.00 0.02 0.02 0.01 0.00 0.00 0.00 0.00 0.00 0.00 0.00 0.00 0.00 0.00 0.00 0.00 0.00 0.00 0.00 0.00 0.00 0.00 0.00 0.00 0.00 0.00 0.00 0.00 0.00
0.00 0.00 0.00 0.00 0.00 0.01 0.01 0.01 0.02 0.01 0.01 0.00 0.00 0.00 0.00 0.00 0.00 0.00 0.00 0.00 0.00 0.00 0.00 0.00 0.00 0.00 0.00 0.00 0.00 0.00 0.00 0.00 0.00 0.00 0.00 0.00 0.00 0.00
0.00 0.00 0.00 0.00 0.00 0.02 0.03 0.08 0.04 0.02 0.01 0.00 0.00 0.00 0.00 0.00 0.00 0.00 0.00 0.00 0.00 0.00 0.00 0.00 0.00 0.00 0.00 0.00 0.00 0.00 0.00 0.00 0.00 0.00 0.00 0.00 0.00 0.00
0.00 0.00 0.00 0.01 0.02 0.01 0.03 0.04 0.02 0.02 0.01 0.00 0.00 0.00 0.00 0.00 0.00 0.00 0.00 0.00 0.00 0.00 0.00 0.00 0.00 0.00 0.00 0.00 0.00 0.00 0.00 0.00 0.00 0.00 0.00 0.00 0.00 0.00
0.00 0.00 0.00 0.01 0.00 0.00 0.00 0.00 0.00 0.00 0.00 0.00 0.00 0.00 0.00 0.00 0.00 0.00 0.00 0.00 0.00 0.00 0.00 0.00 0.00 0.00 0.00 0.00 0.00 0.00 0.00 0.00 0.00 0.00 0.00 0.00 0.00 0.00
0.00 0.00 0.00 0.00 0.00 0.00 0.00 0.00 0.00 0.00 0.00 0.00 0.00 0.00 0.00 0.00 0.00 0.00 0.00 0.00 0.00 0.00 0.00 0.00 0.00 0.00 0.00 0.00 0.00 0.00 0.00 0.00 0.00 0.00 0.00 0.00 0.00 0.00
0.00 0.00 0.00 0.00 0.00 0.00 0.00 0.00 0.00 0.00 0.00 0.00 0.00 0.00 0.00 0.00 0.00 0.00 0.00 0.00 0.00 0.00 0.00 0.00 0.00 0.00 0.00 0.00 0.00 0.00 0.00 0.00 0.00 0.00 0.00 0.00 0.00 0.00
0.00 0.00 0.00 0.00 0.00 0.00 0.00 0.00 0.00 0.00 0.00 0.00 0.00 0.00 0.00 0.00 0.00 0.00 0.00 0.00 0.00 0.00 0.00 0.00 0.00 0.00 0.00 0.00 0.00 0.00 0.00 0.00 0.00 0.00 0.00 0.00 0.00 0.00
0.00 0.00 0.00 0.00 0.00 0.00 0.00 0.00 0.00 0.00 0.00 0.00 0.00 0.00 0.00 0.00 0.00 0.00 0.00 0.00 0.00 0.00 0.00 0.00 0.00 0.00 0.00 0.00 0.00 0.00 0.00 0.00 0.00 0.00 0.00 0.00 0.00 0.00
0.00 0.00 0.00 0.00 0.00 0.00 0.00 0.00 0.00 0.00 0.00 0.00 0.00 0.00 0.00 0.00 0.00 0.00 0.00 0.00 0.00 0.00 0.00 0.00 0.00 0.00 0.00 0.00 0.00 0.00 0.00 0.00 0.00 0.00 0.00 0.00 0.00 0.00
0.00 0.00 0.00 0.00 0.00 0.00 0.00 0.00 0.00 0.00 0.00 0.00 0.00 0.00 0.00 0.00 0.00 0.00 0.00 0.00 0.00 0.00 0.00 0.00 0.00 0.00 0.00 0.00 0.00 0.00 0.00 0.00 0.00 0.00 0.00 0.01 0.00 0.00
0.00 0.00 0.00 0.00 0.00 0.00 0.00 0.00 0.00 0.00 0.00 0.00 0.00 0.00 0.00 0.00 0.00 0.00 0.00 0.00 0.00 0.00 0.00 0.00 0.00 0.00 0.00 0.00 0.00 0.00 0.00 0.00 0.00 0.00 0.00 0.00 0.00 0.00
MSLP
1018.28 1018.53 1018.69 1018.61 1018.69 1018.67 1018.73 1019.02 1019.52 1020.39 1020.25 1019.42 1019.16 1018.53 1018.43 1018.58 1018.66 1018.84 1019.03 1018.88 1018.92 1018.95 1018.95 1018.99 1018.94 1018.91 1018.90 1018.89 1018.90 1018.95 1018.98 1018.93 1018.89 1018.86 1018.85 1018.82 1018.89 1018.92
1017.72 1018.10 1018.37 1018.54 1018.71 1018.64 1018.52 1018.61 1019.02 1019.60 1019.98 1019.49 1019.14 1018.79 1018.46 1018.38 1018.37 1018.47 1018.53 1018.44 1018.55 1018.60 1018.57 1018.56 1018.53 1018.43 1018.39 1018.37 1018.33 1018.30 1018.29 1018.22 1018.25 1018.29 1018.39 1018.35 1018.33 1018.42
1017.36 1017.67 1017.97 1018.15 1018.48 1018.75 1018.88 1019.10 1019.28 1019.35 1019.79 1019.56 1019.16 1018.77 1018.69 1018.73 1018.41 1018.37 1018.31 1018.39 1018.35 1018.17 1018.09 1018.08 1018.04 1018.03 1018.06 1017.94 1017.75 1017.60 1017.55 1017.51 1017.51 1017.58 1017.65 1017.69 1017.80 1017.80
1016.93 1017.38 1017.62 1017.69 1017.91 1018.26 1018.61 1018.83 1019.11 1018.85 1019.04 1019.68 1019.41 1019.12 1018.99 1018.71 1018.36 1018.28 1018.02 1017.89 1017.92 1017.71 1017.60 1017.51 1017.52 1017.48 1017.51 1017.42 1017.25 1017.19 1017.00 1016.89 1017.00 1017.08 1017.15 1017.20 1017.10 1017.05
1016.58 1017.08 1017.25 1017.58 1017.86 1017.94 1018.14 1018.52 1018.57 1019.03 1019.00 1019.36 1019.55 1019.20 1018.92 1018.47 1018.39 1018.43 1018.25 1017.98 1017.69 1017.53 1017.43 1017.26 1017.15 1017.17 1017.19 1017.15 1016.98 1016.78 1016.68 1016.60 1016.59 1016.48 1016.47 1016.58 1016.50 1016.56
1015.93 1016.35 1016.74 1017.17 1017.41 1017.55 1017.82 1018.01 1018.43 1019.01 1019.31 1019.29 1019.60 1019.36 1019.05 1018.61 1018.55 1018.62 1018.51 1018.22 1017.86 1017.36 1017.01 1016.99 1017.05 1016.99 1016.87 1016.67 1016.50 1016.24 1016.14 1016.04 1015.93 1015.97 1016.05 1015.99 1015.91 1015.80
1015.26 1015.68 1016.11 1016.35 1016.61 1016.98 1017.18 1017.66 1017.88 1018.45 1018.87 1019.10 1019.33 1019.32 1018.78 1018.67 1018.67 1018.43 1018.51 1018.24 1017.83 1017.49 1017.29 1017.20 1017.08 1016.89 1016.34 1016.07 1015.87 1015.59 1015.72 1015.55 1015.46 1015.33 1015.40 1015.24 1015.09 1015.03
1015.00 1015.31 1015.61 1015.90 1016.12 1016.38 1016.45 1016.65 1017.10 1017.86 1018.24 1018.58 1019.01 1019.07 1018.67 1018.33 1018.26 1018.38 1018.39 1018.36 1018.11 1016.97 1017.33 1017.31 1017.07 1017.02 1016.54 1016.13 1015.91 1015.72 1015.43 1015.21 1015.02 1014.70 1014.41 1014.39 1014.30 1014.26
1014.29 1014.82 1015.24 1015.44 1015.65 1015.98 1016.29 1016.53 1016.78 1017.05 1017.29 1017.71 1017.95 1018.04 1018.09 1017.87 1017.70 1017.70 1017.64 1017.66 1017.60 1016.86 1016.93 1016.98 1016.58 1016.50 1015.82 1015.51 1015.27 1015.07 1014.73 1014.42 1014.07 1013.90 1013.71 1013.64 1013.55 1013.43
1013.77 1014.11 1014.59 1014.88 1015.17 1015.61 1016.08 1016.39 1016.59 1016.63 1016.50 1016.58 1016.76 1016.76 1016.99 1017.02 1017.17 1016.98 1016.96 1017.12 1017.04 1016.68 1016.91 1017.04 1016.18 1016.13 1015.29 1014.93 1014.53 1014.18 1013.92 1013.57 1013.29 1013.14 1013.00 1012.88 1012.74 1012.68
1013.16 1013.58 1013.95 1014.33 1014.85 1015.34 1015.94 1016.40 1016.40 1016.27 1016.07 1016.16 1016.26 1016.26 1016.36 1016.38 1016.42 1016.73 1016.71 1017.13 1017.19 1016.61 1016.25 1016.50 1016.04 1015.59 1015.03 1014.51 1013.91 1013.53 1013.31 1013.07 1012.78 1012.48 1012.24 1012.03 1011.82 1011.57
1012.88 1013.09 1013.40 1013.78 1014.35 1014.89 1015.73 1015.97 1016.09 1015.82 1016.04 1016.12 1016.02 1015.97 1015.86 1015.72 1015.71 1016.13 1016.22 1016.56 1016.70 1016.59 1015.62 1016.08 1015.62 1015.51 1015.12 1014.09 1013.58 1013.15 1012.89 1012.39 1012.06 1011.69 1011.43 1011.20 1010.98 1010.91
1012.50 1012.97 1013.20 1013.42 1013.87 1014.28 1014.75 1015.03 1015.25 1015.35 1015.57 1015.81 1016.19 1016.11 1015.81 1015.75 1015.50 1015.37 1015.55 1015.85 1016.02 1016.01 1015.08 1015.42 1015.33 1015.19 1015.09 1014.49 1013.56 1012.71 1012.21 1011.70 1011.41 1011.03 1010.66 1010.45 1010.22 1010.14
1012.28 1012.61 1012.83 1013.16 1013.45 1013.83 1014.25 1014.46 1014.71 1015.24 1015.65 1015.78 1015.98 1015.98 1015.85 1015.57 1015.23 1015.23 1015.07 1015.07 1015.10 1015.15 1014.51 1014.73 1015.03 1014.76 1014.62 1014.13 1013.31 1012.09 1011.52 1011.08 1010.77 1010.36 1009.95 1009.48 1009.07 1008.71
1011.79 1012.27 1012.71 1013.05 1013.31 1013.65 1013.99 1014.52 1014.80 1015.28 1015.57 1015.82 1016.01 1016.05 1015.80 1015.56 1015.31 1015.10 1014.94 1014.90 1014.84 1014.52 1014.06 1013.97 1014.13 1013.80 1013.73 1013.33 1012.65 1011.85 1011.26 1010.60 1010.24 1009.87 1009.41 1008.81 1008.09 1007.45
1011.52 1012.19 1012.73 1013.15 1013.26 1013.56 1013.79 1014.25 1014.70 1014.89 1015.24 1015.22 1015.40 1015.47 1015.46 1015.44 1015.32 1015.23 1015.26 1015.07 1015.19 1014.58 1013.51 1013.07 1013.09 1013.20 1012.93 1012.34 1012.06 1011.52 1010.96 1010.70 1009.63 1009.31 1008.46 1007.68 1007.04 1006.45
1011.82 1012.56 1012.93 1013.07 1013.55 1013.75 1013.78 1014.03 1014.39 1014.74 1015.02 1015.23 1015.32 1015.27 1015.45 1015.45 1015.34 1015.10 1015.19 1015.25 1015.34 1014.93 1014.14 1013.02 1012.43 1012.27 1011.99 1011.83 1011.60 1010.90 1010.39 1009.86 1009.17 1008.47 1007.86 1006.60 1005.85 1005.26
1011.74 1012.38 1012.68 1012.98 1013.27 1013.48 1013.58 1013.78 1014.13 1014.37 1014.55 1014.83 1014.95 1015.10 1015.26 1015.40 1015.37 1015.18 1015.16 1015.27 1015.30 1014.75 1014.24 1013.52 1012.86 1012.32 1011.79 1010.91 1010.49 1010.25 1009.85 1009.31 1008.49 1007.93 1007.50 1006.44 1004.60 1004.14
1011.39 1011.78 1012.34 1012.72 1012.95 1013.23 1013.39 1013.50 1013.43 1013.47 1013.70 1014.25 1014.86 1015.03 1015.15 1015.23 1015.27 1015.18 1015.09 1015.03 1014.82 1014.48 1013.90 1013.41 1012.92 1012.71 1012.33 1011.68 1010.64 1009.67 1009.65 1008.95 1008.32 1007.71 1007.02 1006.03 1004.64 1003.44
1011.47 1011.56 1011.95 1012.36 1012.71 1012.97 1013.02 1013.16 1013.28 1013.48 1013.81 1014.17 1014.64 1014.80 1014.91 1015.12 1015.12 1015.04 1014.93 1014.99 1014.76 1014.34 1013.88 1013.07 1012.75 1012.41 1012.18 1011.65 1011.30 1010.08 1009.32 1009.13 1008.44 1007.34 1005.95 1005.00 1004.19 1002.77
1011.19 1011.30 1011.62 1012.09 1012.44 1012.73 1012.93 1013.12 1013.24 1013.63 1013.81 1014.12 1014.41 1014.65 1014.80 1014.97 1014.90 1014.86 1014.76 1014.52 1014.51 1014.26 1013.87 1013.14 1012.16 1011.62 1011.45 1011.38 1011.30 1010.59 1009.27 1008.66 1008.29 1007.40 1005.95 1004.74 1003.36 1001.66
1010.80 1011.19 1011.77 1012.04 1012.08 1012.51 1012.89 1013.19 1013.59 1013.63 1013.93 1014.14 1014.28 1014.41 1014.45 1014.62 1014.70 1014.62 1014.53 1014.53 1014.25 1013.94 1013.44 1012.49 1011.80 1011.53 1011.59 1011.63 1011.46 1010.87 1009.85 1008.60 1007.68 1007.08 1006.29 1005.74 1004.34 1002.52
1010.33 1010.90 1011.32 1011.72 1012.03 1012.43 1012.73 1013.03 1013.27 1013.27 1013.61 1013.66 1013.89 1014.10 1014.35 1014.49 1014.34 1014.37 1014.37 1014.17 1013.86 1013.44 1013.05 1012.46 1012.01 1011.73 1011.66 1011.59 1011.46 1010.92 1010.18 1009.14 1007.96 1006.64 1005.69 1004.89 1004.13 1003.16
Thickness
5735 5730 5726 5723 5719 5716 5713 5709 5700 5689 5689 5700 5703 5710 5710 5707 5704 5698 5697 5696 5695 5693 5692 5692 5691 5692 5692 5691 5691 5690 5690 5690 5690 5691 5692 5693 5693 5694
5738 5730 5724 5719 5716 5715 5713 5710 5704 5694 5682 5690 5695 5698 5700 5699 5698 5696 5692 5691 5688 5687 5687 5686 5686 5686 5686 5686 5687 5687 5687 5687 5686 5686 5686 5686 5688 5689
5739 5732 5724 5719 5712 5706 5702 5698 5694 5692 5684 5683 5686 5689 5689 5687 5687 5686 5684 5683 5682 5681 5681 5680 5680 5679 5678 5679 5680 5681 5681 5681 5681 5680 5680 5679 5680 5681
5737 5730 5725 5721 5714 5707 5700 5693 5690 5690 5686 5676 5675 5676 5676 5679 5679 5679 5679 5677 5676 5674 5673 5672 5671 5671 5670 5670 5672 5672 5674 5673 5671 5671 5670 5671 5672 5674
5737 5729 5723 5717 5710 5705 5700 5692 5689 5682 5678 5672 5666 5668 5670 5670 5670 5667 5666 5668 5669 5668 5666 5665 5663 5663 5661 5659 5660 5661 5662 5661 5661 5662 5661 5661 5663 5664
5737 5731 5723 5714 5708 5703 5696 5691 5682 5675 5669 5665 5658 5658 5660 5662 5661 5658 5655 5655 5654 5654 5657 5654 5653 5651 5650 5651 5651 5651 5650 5650 5651 5651 5650 5652 5653 5656
5736 5729 5722 5715 5709 5702 5696 5688 5682 5672 5666 5660 5655 5654 5656 5653 5650 5651 5647 5646 5647 5645 5645 5643 5640 5639 5642 5642 5641 5642 5639 5640 5640 5640 5639 5642 5644 5645
5733 5726 5720 5714 5708 5702 5698 5692 5683 5671 5664 5657 5651 5648 5648 5648 5644 5639 5635 5633 5630 5636 5630 5627 5625 5623 5623 5624 5622 5621 5622 5622 5623 5626 5630 5630 5631 5633
5732 5723 5715 5710 5704 5697 5690 5684 5677 5671 5663 5655 5649 5646 5642 5640 5638 5633 5630 5626 5622 5626 5621 5618 5617 5615 5616 5614 5612 5611 5611 5611 5614 5614 5615 5616 5617 5619
5729 5722 5712 5706 5699 5691 5682 5674 5669 5664 5659 5655 5650 5646 5639 5635 5629 5626 5623 5617 5615 5612 5606 5603 5606 5603 5605 5605 5603 5602 5603 5604 5606 5606 5606 5606 5606 5607
5727 5719 5711 5702 5692 5683 5673 5665 5659 5655 5650 5646 5641 5636 5632 5626 5622 5617 5611 5602 5599 5598 5594 5592 5592 5593 5594 5595 5595 5595 5595 5595 5596 5597 5597 5597 5598 5599
5720 5714 5706 5698 5687 5677 5666 5660 5651 5648 5643 5637 5634 5628 5625 5621 5616 5608 5603 5594 5587 5585 5586 5581 5582 5580 5581 5586 5587 5587 5586 5588 5588 5589 5589 5589 5589 5589
5714 5704 5698 5692 5683 5674 5665 5658 5649 5642 5636 5628 5621 5616 5614 5609 5606 5600 5593 5586 5578 5574 5579 5574 5571 5570 5566 5570 5577 5580 5581 5583 5581 5581 5582 5582 5581 5578
5703 5696 5692 5685 5677 5668 5658 5652 5645 5635 5625 5620 5611 5606 5602 5598 5596 5591 5586 5580 5575 5571 5572 5566 5562 5561 5560 5562 5565 5574 5575 5575 5574 5574 5575 5576 5577 5574
5699 5690 5682 5674 5666 5659 5651 5641 5633 5624 5617 5609 5601 5595 5593 5589 5586 5581 5575 5570 5566 5564 5563 5561 5558 5558 5555 5557 5562 5563 5565 5568 5567 5565 5566 5568 5569 5568
5693 5681 5672 5663 5657 5651 5643 5633 5625 5618 5610 5604 5597 5592 5586 5581 5576 5569 5563 5558 5553 5553 5557 5557 5555 5552 5552 5553 5551 5555 5557 5551 5559 5557 5561 5563 5560 5553
5681 5669 5662 5655 5646 5640 5634 5626 5617 5609 5603 5598 5591 5587 5580 5573 5567 5561 5555 5550 5544 5542 5544 5549 5551 5550 5549 5547 5547 5549 5549 5550 5550 5552 5551 5560 5556 5547
5670 5661 5654 5645 5639 5632 5626 5620 5612 5606 5600 5594 5588 5581 5574 5566 5560 5555 5550 5544 5539 5538 5537 5541 5542 5543 5542 5543 5540 5540 5542 5542 5546 5544 5541 5543 5554 5547
5663 5658 5648 5639 5633 5627 5621 5615 5612 5608 5602 5594 5583 5576 5569 5562 5555 5550 5544 5539 5537 5534 5534 5534 5534 5533 5528 5527 5534 5532 5532 5536 5536 5535 5534 5535 5536 5542
5654 5649 5641 5634 5627 5621 5616 5611 5607 5601 5595 5588 5579 5572 5565 5557 5552 5546 5540 5534 5531 5529 5528 5529 5526 5522 5518 5517 5518 5523 5521 5520 5523 5527 5535 5536 5530 5537
5646 5642 5636 5627 5621 5614 5610 5606 5603 5597 5591 5583 5575 5567 5560 5553 5548 5542 5536 5533 5527 5523 5521 5522 5523 5522 5517 5511 5507 5509 5515 5514 5512 5515 5522 5525 5529 5537
5638 5632 5623 5617 5615 5608 5603 5599 5593 5590 5583 5576 5570 5562 5557 5550 5544 5539 5534 5528 5524 5520 5519 5521 5520 5516 5509 5502 5498 5500 5504 5510 5510 5507 5506 5503 5510 5524
5632 5625 5618 5612 5607 5602 5598 5594 5589 5586 5578 5573 5566 5560 5552 5547 5542 5537 5531 5526 5522 5520 5518 5518 5515 5510 5503 5498 5495 5495 5496 5501 5506 5510 5508 5507 5507 5514